"Pseudo-MPEC" for N00gyb6

Created 2020 Aug 6 7:07:07 UT using Find_Orb

Click here for an explanation of pseudo-MPECs

 
 Astrometry: 
     N00gyb6  S2020 07 23knk4[AMQ]C\w5y60*@.-opWj/Ci5*4)uAstrometry!0wNaZKD1aC51
     N00gyb6  s2020 07 23x1wcoqKfBYW+WtahW7kYGhac#3a4N_E%nvNq=J*N/;redacted;(C51
     N00gyb6  S2020 07 23*#pan;t;^\XaI?uwYu[iRc:I3yQC:Y'=*BeE=']S_DY@y8oUs^a]C51
     N00gyb6  s2020 07 23y1JxGlvNdZKOYh0=upaw)[PAP_ni+B1Vt(#f$,P^W=y64t`vKi1UC51
     N00gyb6  S2020 07 23d:Y+:d'@!.xgfclick*$;xu:40hO`9qn]3brVy\!DyB0]:hx8dlNC51
     N00gyb6  s2020 07 23Z/4MN_Aes]'E9ayvbSt;u_RiM*'kvb?0qS]y9Xdf;EeU-d+I%?mqC51
     N00gyb6  S2020 07 23]lV],W=R0+#3JiNoU)sh7HE+fB2L`pYA'vs7PXoc(^lRmuTg4XfYC51
     N00gyb6  s2020 07 23=RP_e5[A1n-bL%/;qa.GoOheree*bQc%]m?Hp?7+:S=.aY4=^CX0C51
     N00gyb6  S2020 07 23*AWTJv^2'!ldo1g?*$$DXARsf69dIIHjZ:0`'7s!e*h*4Gb2%*dRC51
     N00gyb6  s2020 07 23^*BQnk=54?*DZ15P*7;hYyVah_kR7*64[+%6oJAyIU0^+nOF\cy8C51
     N00gyb6  S2020 07 24ia),2@6H.L-4b/]f+\i`FNF:WFP@FhdaHmmZg^\v0jdLyG8^](y)C51
     N00gyb6  s2020 07 240EwAEMk;RcMFwforn^YDn#.@W/2;ln:uX9r_yp*:v]W#].qAhiE$C51
     N00gyb6  S2020 07 24c4urDfV(V?(LIv,T%CbQ*m-*Kp`_FX@DEPF%XWD:]m7`TE?waJFqC51
     N00gyb6  s2020 07 24#PCN6(NIrnRrMe)qYgp'roJ1K@WBCaeKQHyJKHWDuvMlUneu]OvaC51
     N00gyb6  S2020 07 24`!'=C%X/*01*d5/3FSbB[/ROtX%W-UsnVeyYxbd.sHLcW9/eR1*OC51
     N00gyb6  s2020 07 24+.Ic5q?j7?#5'AwUCIUcM@?Y@P=I5YXQ]AA.aeyZh4;0ep-ihb,pC51
     N00gyb6  S2020 07 24(K)!G6Z8A=3bNM%.pnJZYtgH=PT32Y54=o$x-Fo@buojUW`I[@(0C51
     N00gyb6  s2020 07 24-+M79:Js09-N.2o2u5NK^pXOQx1a`4wV(!)9:jgVGqhBa=my5MonC51
     N00gyb6  S2020 07 24GF4b,*w^`Y9irTZ906`explanation(Y]CPPBe$8YZ9H!fSR$92]C51
     N00gyb6  s2020 07 24^Lqx\a8dtu-JL*j*BI5)g6J@CN3UFp9rAkU)*?#%'(+1ri-u.B%uC51
     N00gyb6  S2020 07 242);UWNd$yXv@I+#-%[g,crq[XVJ5yfnBPv`Tu*pB6MO;.p!qir,_C51
     N00gyb6  s2020 07 24*c/*RbJqVFGR-U(K_RGO%wDhmE96qFu!c^_;F02VV3/chkiNC6WgC51
     N00gyb6  S2020 07 24j5G*%s*!Nm94.:xupT.Yrw$;%!Q\$s8H.:,336ha]\OFvMul()TZC51
     N00gyb6  s2020 07 24*o9,Pdsh2'(sooc]1G?`mohhJKB$`My2MOPGr=(T6wJy55.OG$=iC51

Station data:
(C51) WISE. Measurers A. Mainzer, E. Wright, J. Bauer, T. Grav, J. Dailey, J.
   Masiero, R. Cutri, R. McMillan, R. Walker.

Orbital elements:  N00gyb6
   Perihelion 2020 Jul 21.505061 +/- 0.365 TT = 12:07:17 (JD 2459052.005061)
Epoch 2020 Jul 24.0 TT = JDT 2459054.5   Earth MOID: 0.0508   AutoNEOCP
M   0.72214298 +/- 0.7              (J2000 ecliptic)
n   0.28944311 +/- 0.35             Peri.  336.18279 +/- 1.2
a   2.26339610 +/- 1.77             Node   330.87055 +/- 4.7
e   0.5421974 +/- 0.364             Incl.   16.74926 +/- 5.6
P   3.41                   H 21.1   G  0.15   U 12.0  
q 1.03618845 +/- 0.0203    Q 3.49060376 +/- 11.7
From 12 observations 2020 July 23-24 (28.2 hr); mean residual 0".73
Residuals in arcseconds: 
200723 C51  .58+  .33+    200723 C51  .47+  1.1-    200724 C51  .52-  .27+    
200723 C51  1.4-  .03+    200724 C51  1.8-  .09-    200724 C51  .01-  .18-    
200723 C51  .38+  .33+    200724 C51  .41+  1.1+    200724 C51  .77-  .09+    
200723 C51  1.1+  .42-    200724 C51  1.0+  .32-    200724 C51  .50+  .04-    

Ephemerides (geocentric):
Date (UTC) HH   RA              Dec         delta   r     elong  mag " sig PA
---- -- -- --  -------------   -----------  ------ ------ -----  --- ---- ---
2020 08 06 07  02 36 06.688   +06 36 21.62  .21138 1.0545  95.2 20.5  518  94
2020 08 06 08  02 36 05.579   +06 40 40.72  .21146 1.0546  95.2 20.5  522  94
2020 08 06 09  02 36 04.467   +06 44 59.61  .21154 1.0547  95.2 20.5  525  94
2020 08 06 10  02 36 03.353   +06 49 18.29  .21162 1.0548  95.2 20.5  528  94
2020 08 06 11  02 36 02.236   +06 53 36.76  .21170 1.0549  95.3 20.5  532  94
2020 08 06 12  02 36 01.115   +06 57 55.02  .21178 1.0550  95.3 20.5  535  94
2020 08 06 13  02 35 59.992   +07 02 13.07  .21186 1.0551  95.3 20.5  538  94
2020 08 06 14  02 35 58.866   +07 06 30.91  .21194 1.0552  95.3 20.5  541  94
2020 08 06 15  02 35 57.738   +07 10 48.53  .21202 1.0553  95.4 20.5  545  94
2020 08 06 16  02 35 56.606   +07 15 05.94  .21211 1.0554  95.4 20.5  548  94
2020 08 06 17  02 35 55.472   +07 19 23.14  .21219 1.0555  95.4 20.5  551  94
2020 08 06 18  02 35 54.335   +07 23 40.13  .21227 1.0556  95.4 20.5  555  94
2020 08 06 19  02 35 53.194   +07 27 56.90  .21235 1.0557  95.5 20.5  558  93
2020 08 06 20  02 35 52.051   +07 32 13.45  .21243 1.0558  95.5 20.5  561  93
2020 08 06 21  02 35 50.905   +07 36 29.80  .21251 1.0559  95.5 20.5  565  93
2020 08 06 22  02 35 49.757   +07 40 45.93  .21260 1.0560  95.5 20.5  568  93
2020 08 06 23  02 35 48.605   +07 45 01.84  .21268 1.0561  95.5 20.5  572  93
2020 08 07 00  02 35 47.450   +07 49 17.53  .21276 1.0562  95.6 20.5  575  93
2020 08 07 01  02 35 46.293   +07 53 33.01  .21285 1.0563  95.6 20.5  578  93
2020 08 07 02  02 35 45.132   +07 57 48.28  .21293 1.0564  95.6 20.5  582  93
2020 08 07 03  02 35 43.969   +08 02 03.33  .21301 1.0565  95.6 20.5  585  93
2020 08 07 04  02 35 42.802   +08 06 18.16  .21310 1.0566  95.7 20.5  589  93
2020 08 07 05  02 35 41.633   +08 10 32.77  .21318 1.0567  95.7 20.5  592  93
2020 08 07 06  02 35 40.460   +08 14 47.16  .21327 1.0568  95.7 20.5  596  93
2020 08 07 07  02 35 39.285   +08 19 01.34  .21335 1.0569  95.7 20.5  599  93
2020 08 07 08  02 35 38.107   +08 23 15.30  .21344 1.0570  95.7 20.5  602  93
2020 08 07 09  02 35 36.926   +08 27 29.04  .21352 1.0571  95.8 20.5  606  93
2020 08 07 10  02 35 35.741   +08 31 42.56  .21361 1.0572  95.8 20.5  609  93
2020 08 07 11  02 35 34.554   +08 35 55.86  .21369 1.0573  95.8 20.5  613  93
2020 08 07 12  02 35 33.364   +08 40 08.94  .21378 1.0574  95.8 20.5  616  93
2020 08 07 13  02 35 32.170   +08 44 21.80  .21386 1.0575  95.9 20.5  620  93
2020 08 07 14  02 35 30.974   +08 48 34.44  .21395 1.0576  95.9 20.5  623  93
2020 08 07 15  02 35 29.775   +08 52 46.86  .21404 1.0577  95.9 20.5  627  93
2020 08 07 16  02 35 28.572   +08 56 59.05  .21412 1.0578  95.9 20.5  630  93
2020 08 07 17  02 35 27.367   +09 01 11.03  .21421 1.0579  96.0 20.5  634  93
2020 08 07 18  02 35 26.158   +09 05 22.78  .21430 1.0580  96.0 20.5  637  93
2020 08 07 19  02 35 24.946   +09 09 34.31  .21439 1.0581  96.0 20.5  641  93
2020 08 07 20  02 35 23.732   +09 13 45.62  .21447 1.0582  96.0 20.5  645  93
2020 08 07 21  02 35 22.514   +09 17 56.71  .21456 1.0583  96.1 20.5  648  93
2020 08 07 22  02 35 21.293   +09 22 07.57  .21465 1.0584  96.1 20.5  652  93
2020 08 07 23  02 35 20.069   +09 26 18.21  .21474 1.0586  96.1 20.5  655  93
2020 08 08 00  02 35 18.842   +09 30 28.62  .21483 1.0587  96.1 20.5  659  93
2020 08 08 01  02 35 17.612   +09 34 38.81  .21492 1.0588  96.1 20.5  662  93
2020 08 08 02  02 35 16.378   +09 38 48.78  .21501 1.0589  96.2 20.5  666  93
2020 08 08 03  02 35 15.142   +09 42 58.52  .21509 1.0590  96.2 20.5  670  93
2020 08 08 04  02 35 13.902   +09 47 08.04  .21518 1.0591  96.2 20.5  673  93
2020 08 08 05  02 35 12.659   +09 51 17.33  .21527 1.0592  96.2 20.5  677  93
2020 08 08 06  02 35 11.413   +09 55 26.39  .21536 1.0593  96.3 20.5  680  93